Location: Alvis C Story Elementary School
(33.0968°N, 96.6364°W)
Time: 06:46:55
(UTC+00:00)

H-2A R/B (2) - Pass Details

Date: 26 June 2022
Orbit: 426 x 34397 km, 28.9° (Epoch: 11 August)

Event Time Altitude Azimuth Distance (km) Brightness Sun altitude
Rises 07:27:34 0° 110° (ESE) 38,932 10.6 -31.9°
Reaches altitude 10° 09:06:16 10° 109° (ESE) 30,242 10.3 -22.3°
Maximum altitude 09:40:27 11° 106° (ESE) 25,538 10.1 -17.5°
Drops below altitude 10° 10:06:04 10° 100° (E) 21,373 9.9 -13.5°
Sets 10:39:01 0° 87° (E) 15,419 9.7 -8.0°
